Tracking 29790 objects as of 12-Oct-2024
HD Live streaming from Space Station
objects crossing your sky now

SL-8 R/B

Track SL-8 R/B now!
10-day predictions
SL-8 R/B is classified as:


NORAD ID: 19257
Int'l Code: 1988-053B
Perigee: 755.6 km
Apogee: 786.3 km
Inclination: 74.0 °
Period: 100.1 minutes
Semi major axis: 7141 km
RCS: 4.3504 m2 (large)
Launch date: June 21, 1988
Source: Commonwealth of Independent States (former USSR) (CIS)
Launch site: PLESETSK MISSILE AND SPACE COMPLEX (PKMTR)

Note: This is a ROCKET BODY
Your satellite tracking list
Your tracking list is empty




NASA's NSSDC Master Catalog

Two Line Element Set (TLE):
1 19257U 88053B   24285.59434463  .00001561  00000-0  51933-3 0  9994
2 19257  74.0491 339.7269 0021468 287.6381 182.8665 14.38391778902666
Source of the keplerian elements: AFSPC